sat.trackr.live / text

‹ back to catalog

STARLINK-4207

NORAD 52871 · 2022-062AT

PAYLOAD ACTIVE UNKNOWN

§ Identity

Operator
Country
US
Launch date
2022-06-17
Launch site
AFETR
Launch vehicle
Mass (kg)
RCS (m²)

Purposes: comms

External: N2YO · Heavens-Above · Gunter

§ Orbital elements

Epoch: 2026-05-25T01:43:01.639200Z

Period
95.44 min
Inclination
53.2130°
Eccentricity
0.0001132
Mean motion
15.08840534 rev/d
Perigee alt
539.0 km
Apogee alt
540.5 km
Semi-major
6,917.9 km
B*
2.4267e-5
RAAN
31.2300°
Arg perigee
77.5658°
Mean anomaly
282.5461°
Rev number
21,759

§ Raw data

STARLINK-42071 52871U 22062AT  26145.07154675  .00000098  00000+0  24267-4 0  99992 52871  53.2130  31.2300 0001132  77.5658 282.5461 15.08840534217593

JSON: /api/v1/satellites/52871 · /tle

For live sub-satellite position, see the globe view (requires WebGL).

§ Visibility from observer

Set your observer location to see the next 7 days of passes ≥ 10°. The values pass through the URL so the page stays shareable.

No JS? Fill the form by hand. The geolocation button needs JavaScript.